{"data":{"norad_id":68238,"intl_designator":"2026-054G","name":"STARLINK-37097","alt_names":[],"object_type":"PAYLOAD","status":"ACTIVE","operator":null,"country":"US","launch_date":"2026-03-17","launch_site_code":"AFETR","launch_vehicle":null,"mission":null,"orbit_class":"UNKNOWN","rcs_meters":null,"size_class":null,"mass_kg":null,"dimensions":null,"purposes":["comms"],"wikipedia_slug":null,"has_3d_model":false,"image_url":null,"decayed_at":null,"tle_current":{"epoch":"2026-05-25T04:00:03.998880Z","epoch_age_seconds":57874,"freshness":"FRESH","line1":"1 68238U 26054G   26145.16671295  .00014352  00000+0  42168-3 0  9997","line2":"2 68238  53.1596 294.9462 0001003  69.9913 312.7053 15.35389749  5847","mean_motion":15.35389749,"eccentricity":0.0001003,"inclination_deg":53.1596,"raan_deg":294.9462,"arg_perigee_deg":69.9913,"mean_anomaly_deg":312.7053,"bstar":0.00042168,"rev_number":584,"period_min":93.787261569114,"perigee_km":459.07723659913,"apogee_km":460.44891935477,"semimajor_km":6837.9000779769,"source":"CELESTRAK","updated_at":"2026-05-25T13:38:21.884060Z"}}}